Time,TemperatureF,DewpointF,PressureIn,WindDirection,WindDirectionDegrees,WindSpeedMPH,WindSpeedGustMPH,Humidity,HourlyPrecipIn,Conditions,Clouds,dailyrainin,SoftwareType,DateUTC
2013-05-22 00:01:00,54.0,49.0,-100.00,North,360,-999.0,-999.0,84,-99.99,,,-99.99,,2013-05-22 07:01:00,
2013-05-22 00:11:00,54.0,49.0,-100.00,North,360,-999.0,-999.0,84,-99.99,,,-99.99,,2013-05-22 07:11:00,
2013-05-22 00:21:00,54.0,49.0,-100.00,North,360,-999.0,-999.0,84,-99.99,,,-99.99,,2013-05-22 07:21:00,
2013-05-22 00:52:00,53.0,47.0,-100.00,NNE,26,-999.0,-999.0,81,-99.99,,,-99.99,,2013-05-22 07:52:00,
2013-05-22 01:02:00,53.0,47.0,-100.00,NNE,26,-999.0,-999.0,81,-99.99,,,-99.99,,2013-05-22 08:02:00,
2013-05-22 01:11:00,53.0,47.0,-100.00,NNE,26,-999.0,-999.0,81,-99.99,,,-99.99,,2013-05-22 08:11:00,
2013-05-22 01:22:00,53.0,48.0,-100.00,NNE,26,-999.0,-999.0,82,-99.99,,,-99.99,,2013-05-22 08:22:00,
2013-05-22 01:31:00,53.0,48.0,-100.00,NNE,26,-999.0,-999.0,82,-99.99,,,-99.99,,2013-05-22 08:31:00,
2013-05-22 01:41:00,53.0,48.0,-100.00,NNE,26,-999.0,-999.0,82,-99.99,,,-99.99,,2013-05-22 08:41:00,
2013-05-22 01:51:00,52.0,51.0,-100.00,NNE,26,-999.0,-999.0,95,-99.99,,,-99.99,,2013-05-22 08:51:00,
2013-05-22 02:01:00,52.0,51.0,-100.00,NNE,26,-999.0,-999.0,95,-99.99,,,-99.99,,2013-05-22 09:01:00,
2013-05-22 02:11:00,52.0,51.0,-100.00,NNE,26,-999.0,-999.0,95,-99.99,,,-99.99,,2013-05-22 09:11:00,
2013-05-22 02:21:00,51.0,50.0,-100.00,NNE,26,-999.0,-999.0,97,-99.99,,,-99.99,,2013-05-22 09:21:00,
2013-05-22 02:32:00,51.0,50.0,-100.00,NNE,26,-999.0,-999.0,97,-99.99,,,-99.99,,2013-05-22 09:32:00,
2013-05-22 02:42:00,51.0,50.0,-100.00,NNE,26,-999.0,-999.0,97,-99.99,,,-99.99,,2013-05-22 09:42:00,
2013-05-22 02:53:00,51.0,51.0,-100.00,NNE,26,-999.0,-999.0,99,-99.99,,,-99.99,,2013-05-22 09:53:00,
2013-05-22 03:02:00,51.0,51.0,-100.00,NNE,26,-999.0,-999.0,99,-99.99,,,-99.99,,2013-05-22 10:02:00,
2013-05-22 03:12:00,51.0,51.0,-100.00,NNE,26,-999.0,-999.0,99,-99.99,,,-99.99,,2013-05-22 10:12:00,
2013-05-22 03:22:00,51.0,51.0,-100.00,NNE,26,-999.0,-999.0,100,-99.99,,,-99.99,,2013-05-22 10:22:00,
2013-05-22 03:33:00,51.0,51.0,-100.00,NNE,26,-999.0,-999.0,100,-99.99,,,-99.99,,2013-05-22 10:33:00,
2013-05-22 03:42:00,51.0,51.0,-100.00,NNE,26,-999.0,-999.0,100,-99.99,,,-99.99,,2013-05-22 10:42:00,
2013-05-22 03:52:00,51.0,51.0,-100.00,NNE,26,-999.0,-999.0,100,-99.99,,,0.00,,2013-05-22 10:52:00,
2013-05-22 04:02:00,51.0,51.0,-100.00,NNE,26,-999.0,-999.0,100,-99.99,,,0.00,,2013-05-22 11:02:00,
2013-05-22 04:11:00,51.0,51.0,-100.00,NNE,26,-999.0,-999.0,100,-99.99,,,0.00,,2013-05-22 11:11:00,
2013-05-22 04:21:00,52.0,52.0,-100.00,NNE,26,-999.0,-999.0,100,-99.99,,,-99.99,,2013-05-22 11:21:00,
2013-05-22 04:32:00,52.0,52.0,-100.00,NNE,26,-999.0,-999.0,100,-99.99,,,-99.99,,2013-05-22 11:32:00,
2013-05-22 04:41:00,52.0,52.0,-100.00,NNE,26,-999.0,-999.0,100,-99.99,,,-99.99,,2013-05-22 11:41:00,
2013-05-22 04:52:00,53.0,53.0,-100.00,North,-999,-999.0,-999.0,100,-99.99,,,-99.99,,2013-05-22 11:52:00,
2013-05-22 05:02:00,53.0,53.0,-100.00,North,-999,-999.0,-999.0,100,-99.99,,,-99.99,,2013-05-22 12:02:00,
2013-05-22 05:12:00,53.0,53.0,-100.00,North,-999,-999.0,-999.0,100,-99.99,,,-99.99,,2013-05-22 12:12:00,
2013-05-22 05:22:00,53.0,53.0,-100.00,North,1,-999.0,-999.0,100,-99.99,,,-99.99,,2013-05-22 12:22:00,
2013-05-22 05:32:00,53.0,53.0,-100.00,North,1,-999.0,-999.0,100,-99.99,,,-99.99,,2013-05-22 12:32:00,
2013-05-22 05:42:00,53.0,53.0,-100.00,North,1,-999.0,-999.0,100,-99.99,,,-99.99,,2013-05-22 12:42:00,
2013-05-22 05:52:00,53.0,53.0,-100.00,NNE,16,-999.0,-999.0,100,-99.99,,,-99.99,,2013-05-22 12:52:00,
2013-05-22 06:01:00,53.0,53.0,-100.00,NNE,16,-999.0,-999.0,100,-99.99,,,-99.99,,2013-05-22 13:01:00,
2013-05-22 06:11:00,53.0,53.0,-100.00,NNE,16,-999.0,-999.0,100,-99.99,,,-99.99,,2013-05-22 13:11:00,
2013-05-22 06:22:00,53.0,53.0,-100.00,North,9,-999.0,-999.0,100,-99.99,,,-99.99,,2013-05-22 13:22:00,
2013-05-22 06:31:00,53.0,53.0,-100.00,North,9,-999.0,-999.0,100,-99.99,,,-99.99,,2013-05-22 13:31:00,
2013-05-22 06:41:00,53.0,53.0,-100.00,North,9,-999.0,-999.0,100,-99.99,,,-99.99,,2013-05-22 13:41:00,
2013-05-22 06:52:00,54.0,54.0,-100.00,North,0,-999.0,-999.0,99,-99.99,,,-99.99,,2013-05-22 13:52:00,
2013-05-22 07:02:00,54.0,54.0,-100.00,North,0,-999.0,-999.0,99,-99.99,,,-99.99,,2013-05-22 14:02:00,
2013-05-22 07:11:00,54.0,54.0,-100.00,North,0,-999.0,-999.0,99,-99.99,,,-99.99,,2013-05-22 14:11:00,
2013-05-22 07:21:00,56.0,55.0,-100.00,SE,139,-999.0,-999.0,97,-99.99,,,-99.99,,2013-05-22 14:21:00,
2013-05-22 07:32:00,56.0,55.0,-100.00,SE,139,-999.0,-999.0,97,-99.99,,,-99.99,,2013-05-22 14:32:00,
2013-05-22 07:41:00,56.0,55.0,-100.00,SE,139,-999.0,-999.0,97,-99.99,,,-99.99,,2013-05-22 14:41:00,
2013-05-22 07:52:00,56.0,55.0,-100.00,SE,139,-999.0,-999.0,97,-99.99,,,-99.99,,2013-05-22 14:52:00,
2013-05-22 12:21:00,65.0,58.0,-100.00,South,175,19.0,-999.0,78,-99.99,,,-99.99,,2013-05-22 19:21:00,
2013-05-22 12:32:00,65.0,58.0,-100.00,South,175,19.0,-999.0,78,-99.99,,,-99.99,,2013-05-22 19:32:00,
2013-05-22 12:41:00,65.0,58.0,-100.00,South,175,19.0,-999.0,78,-99.99,,,-99.99,,2013-05-22 19:41:00,
2013-05-22 12:52:00,66.0,57.0,-100.00,SSE,165,-999.0,-999.0,74,-99.99,,,-99.99,,2013-05-22 19:52:00,
2013-05-22 13:02:00,66.0,57.0,-100.00,SSE,165,-999.0,-999.0,74,-99.99,,,-99.99,,2013-05-22 20:02:00,
2013-05-22 13:11:00,66.0,57.0,-100.00,SSE,165,-999.0,-999.0,74,-99.99,,,-99.99,,2013-05-22 20:11:00,
2013-05-22 13:21:00,68.0,58.0,-100.00,West,275,-999.0,-999.0,70,-99.99,,,-99.99,,2013-05-22 20:21:00,
2013-05-22 13:32:00,68.0,58.0,-100.00,West,275,-999.0,-999.0,70,-99.99,,,-99.99,,2013-05-22 20:32:00,
2013-05-22 13:41:00,68.0,58.0,-100.00,West,275,-999.0,-999.0,70,-99.99,,,-99.99,,2013-05-22 20:41:00,
2013-05-22 14:21:00,69.0,57.0,-100.00,South,175,-999.0,-999.0,66,-99.99,,,-99.99,,2013-05-22 21:21:00,
2013-05-22 14:32:00,69.0,57.0,-100.00,South,175,-999.0,-999.0,66,-99.99,,,-99.99,,2013-05-22 21:32:00,
2013-05-22 14:42:00,69.0,57.0,-100.00,South,175,-999.0,-999.0,66,-99.99,,,-99.99,,2013-05-22 21:42:00,
2013-05-22 14:52:00,69.0,57.0,-100.00,WNW,300,-999.0,-999.0,66,-99.99,,,-99.99,,2013-05-22 21:52:00,
2013-05-22 15:03:00,69.0,57.0,-100.00,WNW,300,-999.0,-999.0,66,-99.99,,,-99.99,,2013-05-22 22:03:00,
2013-05-22 15:12:00,69.0,57.0,-100.00,WNW,300,-999.0,-999.0,66,-99.99,,,-99.99,,2013-05-22 22:12:00,
2013-05-22 15:22:00,69.0,57.0,-100.00,WNW,300,-999.0,-999.0,66,-99.99,,,-99.99,,2013-05-22 22:22:00,
2013-05-22 15:52:00,65.0,56.0,-100.00,WSW,252,-999.0,-999.0,72,-99.99,,,-99.99,,2013-05-22 22:52:00,
2013-05-22 16:02:00,65.0,56.0,-100.00,WSW,252,-999.0,-999.0,72,-99.99,,,-99.99,,2013-05-22 23:02:00,
2013-05-22 16:12:00,65.0,56.0,-100.00,WSW,252,-999.0,-999.0,72,-99.99,,,-99.99,,2013-05-22 23:12:00,
2013-05-22 16:21:00,65.0,56.0,-100.00,WSW,252,-999.0,-999.0,72,-99.99,,,-99.99,,2013-05-22 23:21:00,
2013-05-22 16:52:00,67.0,54.0,-100.00,West,276,-999.0,-999.0,64,-99.99,,,-99.99,,2013-05-22 23:52:00,
2013-05-22 17:01:00,67.0,54.0,-100.00,West,276,-999.0,-999.0,64,-99.99,,,-99.99,,2013-05-23 00:01:00,
2013-05-22 17:11:00,67.0,54.0,-100.00,West,276,-999.0,-999.0,64,-99.99,,,-99.99,,2013-05-23 00:11:00,
2013-05-22 17:21:00,66.0,56.0,-100.00,WSW,238,-999.0,-999.0,69,-99.99,,,-99.99,,2013-05-23 00:21:00,
2013-05-22 17:31:00,66.0,56.0,-100.00,WSW,238,-999.0,-999.0,69,-99.99,,,-99.99,,2013-05-23 00:31:00,
2013-05-22 17:42:00,66.0,56.0,-100.00,WSW,238,-999.0,-999.0,69,-99.99,,,-99.99,,2013-05-23 00:42:00,
2013-05-22 17:51:00,62.0,54.0,-100.00,WSW,250,-999.0,-999.0,74,-99.99,,,-99.99,,2013-05-23 00:51:00,
2013-05-22 18:01:00,62.0,54.0,-100.00,WSW,250,-999.0,-999.0,74,-99.99,,,-99.99,,2013-05-23 01:01:00,
2013-05-22 18:11:00,62.0,54.0,-100.00,WSW,250,-999.0,-999.0,74,-99.99,,,-99.99,,2013-05-23 01:11:00,
2013-05-22 18:21:00,64.0,47.0,-100.00,West,263,-999.0,-999.0,55,-99.99,,,-99.99,,2013-05-23 01:21:00,
2013-05-22 18:32:00,64.0,47.0,-100.00,West,263,-999.0,-999.0,55,-99.99,,,-99.99,,2013-05-23 01:32:00,
2013-05-22 18:42:00,64.0,47.0,-100.00,West,263,-999.0,-999.0,55,-99.99,,,-99.99,,2013-05-23 01:42:00,
2013-05-22 18:52:00,65.0,47.0,-100.00,SSW,201,-999.0,-999.0,52,-99.99,,,-99.99,,2013-05-23 01:52:00,
2013-05-22 19:01:00,65.0,47.0,-100.00,SSW,201,-999.0,-999.0,52,-99.99,,,-99.99,,2013-05-23 02:01:00,
2013-05-22 19:11:00,65.0,47.0,-100.00,SSW,201,-999.0,-999.0,52,-99.99,,,-99.99,,2013-05-23 02:11:00,
2013-05-22 19:21:00,60.0,49.0,-100.00,West,261,-999.0,-999.0,66,-99.99,,,-99.99,,2013-05-23 02:21:00,
2013-05-22 19:31:00,60.0,49.0,-100.00,West,261,-999.0,-999.0,66,-99.99,,,-99.99,,2013-05-23 02:31:00,
2013-05-22 19:42:00,60.0,49.0,-100.00,West,261,-999.0,-999.0,66,-99.99,,,-99.99,,2013-05-23 02:42:00,
2013-05-22 19:51:00,60.0,49.0,-100.00,West,261,-999.0,-999.0,66,-99.99,,,-99.99,,2013-05-23 02:51:00,
2013-05-22 20:01:00,57.0,49.0,-100.00,West,262,-999.0,-999.0,74,-99.99,,,-99.99,,2013-05-23 03:01:00,
2013-05-22 20:11:00,57.0,49.0,-100.00,West,262,-999.0,-999.0,74,-99.99,,,-99.99,,2013-05-23 03:11:00,
2013-05-22 20:21:00,54.0,47.0,-100.00,West,261,-999.0,-999.0,77,-99.99,,,-99.99,,2013-05-23 03:21:00,
2013-05-22 20:33:00,54.0,47.0,-100.00,West,261,-999.0,-999.0,77,-99.99,,,-99.99,,2013-05-23 03:33:00,
2013-05-22 20:43:00,54.0,47.0,-100.00,West,261,-999.0,-999.0,77,-99.99,,,-99.99,,2013-05-23 03:43:00,
2013-05-22 20:53:00,53.0,46.0,-100.00,West,273,-999.0,-999.0,76,-99.99,,,-99.99,,2013-05-23 03:53:00,
2013-05-22 21:02:00,53.0,46.0,-100.00,West,273,-999.0,-999.0,76,-99.99,,,-99.99,,2013-05-23 04:02:00,
2013-05-22 21:12:00,53.0,46.0,-100.00,West,273,-999.0,-999.0,76,-99.99,,,-99.99,,2013-05-23 04:12:00,
2013-05-22 21:22:00,52.0,45.0,-100.00,West,273,-999.0,-999.0,76,-99.99,,,-99.99,,2013-05-23 04:22:00,
2013-05-22 21:33:00,52.0,45.0,-100.00,West,273,-999.0,-999.0,76,-99.99,,,-99.99,,2013-05-23 04:33:00,
2013-05-22 21:42:00,52.0,45.0,-100.00,West,273,-999.0,-999.0,76,-99.99,,,-99.99,,2013-05-23 04:42:00,
2013-05-22 21:52:00,54.0,45.0,-100.00,NW,318,-999.0,-999.0,72,-99.99,,,-99.99,,2013-05-23 04:52:00,
2013-05-22 22:02:00,54.0,45.0,-100.00,NW,318,-999.0,-999.0,72,-99.99,,,-99.99,,2013-05-23 05:02:00,
2013-05-22 22:11:00,54.0,45.0,-100.00,NW,318,-999.0,-999.0,72,-99.99,,,-99.99,,2013-05-23 05:11:00,
2013-05-22 22:21:00,51.0,44.0,-100.00,NW,318,-999.0,-999.0,78,-99.99,,,-99.99,,2013-05-23 05:21:00,
2013-05-22 22:32:00,51.0,44.0,-100.00,NW,318,-999.0,-999.0,78,-99.99,,,-99.99,,2013-05-23 05:32:00,
2013-05-22 22:42:00,51.0,44.0,-100.00,NW,318,-999.0,-999.0,78,-99.99,,,-99.99,,2013-05-23 05:42:00,
2013-05-22 22:52:00,51.0,45.0,-100.00,NW,318,-999.0,-999.0,79,-99.99,,,-99.99,,2013-05-23 05:52:00,
2013-05-22 23:02:00,51.0,45.0,-100.00,NW,318,-999.0,-999.0,79,-99.99,,,-99.99,,2013-05-23 06:02:00,
2013-05-22 23:12:00,51.0,45.0,-100.00,NW,318,-999.0,-999.0,79,-99.99,,,-99.99,,2013-05-23 06:12:00,
2013-05-22 23:21:00,52.0,46.0,-100.00,NNE,15,-999.0,-999.0,80,-99.99,,,-99.99,,2013-05-23 06:21:00,
2013-05-22 23:31:00,52.0,46.0,-100.00,NNE,15,-999.0,-999.0,80,-99.99,,,-99.99,,2013-05-23 06:31:00,
2013-05-22 23:41:00,52.0,46.0,-100.00,NNE,15,-999.0,-999.0,80,-99.99,,,-99.99,,2013-05-23 06:41:00,
2013-05-22 23:52:00,50.0,45.0,-100.00,NNE,15,-999.0,-999.0,83,-99.99,,,-99.99,,2013-05-23 06:52:00,